Dewpoint
57 60 61 61 60 59 61 62 60 59 59 64 65 64 64 65 64 63 63 63 63 61
52 55 57 56 57 59 58 58 60 63 63 62 63 63 64 64 64 63 63 63 63 62
45 48 49 50 50 52 53 55 56 57 58 60 62 63 62 63 63 62 63 62 62 62
41 42 44 45 45 47 48 48 50 51 55 57 58 61 61 61 61 61 61 61 61 61
38 38 40 42 43 45 45 47 46 48 50 53 57 57 60 60 60 61 60 61 61 61
37 35 37 40 42 43 44 45 45 46 47 48 51 54 56 56 60 60 60 61 60 61
32 33 36 38 40 41 42 42 43 44 45 47 47 49 52 52 52 54 60 60 61 61
31 32 35 36 37 39 40 40 40 42 43 44 45 45 46 46 48 49 51 59 60 60
30 30 32 33 34 36 36 37 39 39 41 42 42 40 40 40 43 47 49 52 58 60
27 27 29 30 32 33 34 34 36 37 38 39 41 39 39 38 39 44 48 50 54 56
25 25 26 29 30 31 31 32 33 35 36 37 38 38 38 36 40 45 47 48 51 55
24 23 24 26 27 28 30 31 31 32 34 35 37 36 36 36 38 41 43 43 43 46
23 23 24 25 26 28 29 29 30 30 32 32 34 36 36 35 37 38 39 40 39 38
23 22 23 25 26 27 28 29 30 30 31 32 32 34 34 35 35 36 36 37 39 42
Lifted_Index
-4 -4 -4 -3 -3 -3 -3 -3 -2 -1 -2 -3 -5 -5 -4 -4 -3 -3 -2 -3 -2 -2
-2 -2 -2 -2 -1 -2 -2 -3 -3 -2 -3 -3 -4 -4 -4 -4 -3 -3 -3 -3 -2 -2
1 1 1 1 1 0 -0 -1 -2 -2 -2 -3 -3 -4 -4 -4 -3 -3 -3 -3 -3 -2
5 5 4 3 3 2 2 2 1 0 -0 -1 -2 -3 -3 -3 -3 -3 -3 -3 -3 -3
8 8 7 6 5 5 5 5 4 4 3 2 0 -1 -3 -3 -3 -3 -3 -3 -3 -3
8 8 8 8 7 7 7 7 7 6 5 4 3 1 -1 -2 -3 -3 -3 -3 -3 -3
8 8 8 8 8 8 8 8 8 7 7 6 5 3 2 -0 -2 -3 -3 -3 -3 -3
7 7 8 8 8 8 8 7 7 7 7 7 6 5 4 3 1 -1 -2 -2 -3 -3
8 8 8 8 8 8 8 7 7 7 7 7 6 6 5 4 2 1 -0 -1 -2 -2
9 9 9 8 8 8 8 8 7 7 7 7 6 6 5 4 3 2 1 -0 -1 -1
10 10 9 9 9 9 9 8 8 7 7 7 6 6 6 5 4 3 2 1 0 -0
10 10 9 9 9 9 9 8 8 8 8 7 7 7 6 6 6 5 4 2 1 0
11 10 10 9 9 10 9 9 8 8 8 8 8 7 7 7 7 6 6 4 3 2
11 11 10 10 10 10 10 9 9 8 8 8 8 8 8 8 7 7 6 6 4 3